Tracking 18665 objects as of 22-June-2017
HD Live streaming from Space Station
objects crossing your sky now

OPS 9322 (IDSCS 9)

Track OPS 9322 (IDSCS 9) now!
OPS 9322 (IDSCS 9) is classified as:


NORAD ID: 2649
Int'l Code: 1967-003B
Perigee: 33,545.0 km
Apogee: 33,830.2 km
Inclination: 2.6 °
Period: 1,329.9 minutes
Semi major axis: 40058 km
RCS: 0.1995 m2 (medium)
Launch date: January 18, 1967
Source: United States (US)
Launch site: AIR FORCE EASTERN TEST RANGE (AFETR)
Your satellite tracking list
Your tracking list is empty





NASA's NSSDC Master Catalog

Two Line Element Set (TLE):
1  2649U 67003B   17162.78878604 -.00000123 +00000-0 +00000-0 0  9999
2  2649 002.5505 055.3018 0035593 041.2124 161.3074 01.08282636103788
Source of the keplerian elements: AFSPC